Location: Namasale
(1.5000°N, 32.6167°E)
Time: 23:19:09
(UTC+00:00)

Envisat - Pass Details

Date: 05 December 2021
Orbit: 764 x 766 km, 98.2° (Epoch: 25 January)

Event Time Altitude Azimuth Distance (km) Brightness Sun altitude
Rises 01:47:09 0° 31° (NNE) 3,215 6.3 -26.6°
Reaches altitude 10° 01:49:42 10° 42° (NE) 2,292 5.6 -26.0°
Maximum altitude 01:54:04 30° 102° (ESE) 1,350 4.9 -25.0°
Drops below altitude 10° 01:58:27 10° 162° (SSE) 2,298 6.0 -24.0°
Sets 02:01:00 0° 173° (S) 3,226 6.7 -23.4°
